Other Public Products
Issued by NWS Grand Forks, ND

Home | Current Version | Previous Version | Graphics & Text | Print | Product List | Glossary On
Versions: 1 2 3 4 5 6 7 8 9 10 11 12 13 14 15 16 17 18 19 20 21 22 23 24 25 26 27 28 29 30 31 32 33 34 35 36 37 38 39 40 41 42 43 44 45 46 47 48 49 50
000
FPUS83 KFGF 222210
OPUFGF
PRAIRIE TO PINES WEATHER ROUNDUP
NATIONAL WEATHER SERVICE EASTERN NORTH DAKOTA/GRAND FORKS ND
500 PM CDT MON SEP 22 2014

 **SATELLITE DATA USED TO AUGMENT SKY COVER AT AUTOMATED STATIONS**
 *****  WEATHER ACROSS EASTERN NORTH DAKOTA  *****

CITY           SKY/WX    TMP DP  RH WIND       PRES   REMARKS
GRAND FORKS    SUNNY     77  47  34 S10       30.02F
GRAND FORKS AF SUNNY     77  44  30 SW13      30.03F
GRAND CITY NWS   N/A     77 N/A N/A S10         N/A
BUXTON         NOT AVBL
DEVILS LAKE    SUNNY     79  43  27 S14       29.99F
FARGO          SUNNY     77  47  34 S12       30.06F
WAHPETON ARPT  CLEAR     75  41  29 S12       30.09F
$$

 *****  WEATHER ACROSS CENTRAL AND WESTERN NORTH DAKOTA  *****

CITY           SKY/WX    TMP DP  RH WIND       PRES   REMARKS
JAMESTOWN      SUNNY     75  48  38 S14       30.03F
BISMARCK       SUNNY     83  48  29 SE15      29.96F
MINOT          SUNNY     81  45  28 SE16G23   29.93F
MINOT AFB      SUNNY     80  48  32 S14       29.92F
GARRISON         N/A     80  50  34 S12G17    29.94F
WILLISTON      SUNNY     83  48  29 SE15      29.88F
DICKINSON      MOSUNNY   72  49  44 SE13      29.92S
HETTINGER      MOSUNNY   75  47  36 SE16G24   29.94F
$$

 *****  OTHER OBSERVATIONS NORTHEAST NORTH DAKOTA  *****

CITY           SKY/WX    TMP DP  RH WIND       PRES   REMARKS
WALHALLA       FAIR      77  41  27 S10       30.00F
LANGDON        FAIR      77  41  27 S10       30.02F
CAVALIER       FAIR      77  46  33 SW10      30.00F
GRAFTON        FAIR      77  46  33 S9        30.01F
CANDO          FAIR      77  41  27 S14G20    30.00F
FORT TOTTEN      N/A     79  40  24 S8        29.95
ROLLA          FAIR      77  39  25 S14G20    30.00F
RUGBY          FAIR      79  45  29 S12G17    29.97F
 ***** THE ABOVE OBSERVATIONS ARE NON NWS ARE NOT QUALITY
        CONTROLLED AND MAY MIS-REPORT RAIN FOR SNOW...
$$

 *****  OTHER OBSERVATIONS SOUTHEAST NORTH DAKOTA *****

CITY           SKY/WX    TMP DP  RH WIND       PRES   REMARKS
COOPERSTOWN    NOT AVBL
VALLEY CITY    FAIR      73  48  40 S16       30.06S
OAKES            N/A     77  45  31 S13       30.06F
GWINNER        CLEAR     79  46  31 S13       30.08F
SHEYENNE NWR     N/A     78  47  32 SW9       29.95S
BUFFALO        NOT AVBL
WYNDMERE         N/A     79  46  31 S8          N/A
 ***** THE ABOVE OBSERVATIONS ARE NON NWS ARE NOT QUALITY
       CONTROLLED AND MAY MIS-REPORT RAIN FOR SNOW...
$$

  *****  WEATHER ACROSS NORTHERN MINNESOTA  *****

CITY           SKY/WX    TMP DP  RH WIND       PRES   REMARKS
FLAG ISLAND    SUNNY     73  45  35 W7        30.02S
WARROAD        SUNNY     73  52  46 SW8       30.05S
ROSEAU         SUNNY     75  52  43 SW9       30.05S
HALLOCK        SUNNY     79  43  27 SW7       30.01F
THF RVR FALLS  SUNNY     73  48  40 SW10      30.06F
HALSTAD          N/A     75  41  29 S10         N/A
FOSSTON        SUNNY     75  48  38 S9        30.09F
BAUDETTE       SUNNY     73  48  41 SW10      30.05F
WASKISH        SUNNY     70  52  52 SW3       30.08F
CROOKSTON      SUNNY     75  48  38 SW12      30.06S
$$
  *****  WEATHER ACROSS CENTRAL AND WEST MINNESOTA  *****

CITY           SKY/WX    TMP DP  RH WIND       PRES   REMARKS
BEMIDJI        SUNNY     72  46  39 W8        30.10F
PARK RAPIDS    SUNNY     71  48  43 SW9       30.12F
WADENA         SUNNY     72  46  40 SW7       30.12F
DETROIT LAKES  SUNNY     72  50  46 S9        30.12F
MOORHEAD       SUNNY     75  39  27 S9        30.08F
FERGUS FALLS   SUNNY     73  41  31 S9        30.10F
ELBOW LAKE     FAIR      72  50  45 S10G17    30.12F
MORRIS MN      SUNNY     75  48  38 S10       30.12F
STAPLES        SUNNY     70  46  43 SW7       30.13F
WHEATON        SUNNY     73  46  38 S7        30.12F
$$
  *****  WEATHER ELSEWHERE ACROSS MINNESOTA  *****

CITY           SKY/WX    TMP DP  RH WIND       PRES   REMARKS
DULUTH         MOSUNNY   71  49  45 W13G20    30.11S
INTRNTL FALLS  SUNNY     73  48  41 VRB6      30.05F
ELY            SUNNY     70  46  43 W10G18    30.08S
CLOQUET        SUNNY     70  46  43 W12G17    30.12F
BRAINERD       SUNNY     70  49  47 SW10      30.14F
HIBBING        SUNNY     72  48  42 W10       30.10F
ALEXANDRIA     SUNNY     71  49  45 S9        30.15F
SAINT CLOUD    SUNNY     74  48  39 SW7       30.15F
MINNEAPOLIS    SUNNY     72  49  44 W8        30.17F
$$

  *****  WEATHER ACROSS SOUTH DAKOTA  *****

CITY           SKY/WX    TMP DP  RH WIND       PRES   REMARKS
SIOUX FALLS    PTSUNNY   72  47  40 S8        30.15F
BROOKINGS      NOT AVBL
WATERTOWN      MOSUNNY   73  46  38 S13       30.13F
HURON          MOSUNNY   77  47  34 S13G23    30.08F
SISSETON         N/A     76  45  33 S8        30.09F
ABERDEEN       MOSUNNY   78  48  34 S17       30.05F
MITCHELL       MOSUNNY   76  49  38 S15G22    30.11F
PIERRE         MOSUNNY   80  46  30 S22G33    29.97F
MOBRIDGE       MOSUNNY   81  51  35 SE20G28   29.95F
RAPID CITY     CLOUDY    75  49  39 S21G28    29.93F
$$

  *****  SOME WEATHER IN NEARBY STATES *****

CITY           SKY/WX    TMP DP  RH WIND       PRES   REMARKS
GLASGOW MT     SUNNY     81  48  31 SE8       29.84F
GREAT FALLS MT MOSUNNY   83  46  27 W10       29.88F
CHEYENNE WY    PTSUNNY   71  44  37 W9        30.15F
SCOTTSBLUFF NE LGT RAIN  67  64  90 N13       30.05F
OMAHA NE       PTSUNNY   73  48  41 S10       30.21F
DES MOINES IA  MOSUNNY   73  49  42 W7        30.22F
DAVENPORT IA   SUNNY     71  41  33 CALM      30.24F
CHICAGO IL     SUNNY     67  41  38 W5        30.23S
EAU CLAIRE WI  SUNNY     69  49  48 W8        30.18F
LA CROSSE WI   SUNNY     72  51  47 NW5       30.19F
$$

  *****  SOME NATIONAL WEATHER *****

CITY           SKY/WX    TMP DP  RH WIND       PRES   REMARKS
LA GUARDIA NY  MOCLDY    66  43  43 NW13G24   29.98R
RALEIGH NC     PTSUNNY   71  54  54 CALM      30.06S
ATLANTA GA     MOSUNNY   77  52  41 N17       30.04R
NEW ORLEANS LA MOSUNNY   88  70  55 N18       29.96S HX  93
OKLAHOMA CITY  MOSUNNY   82  45  27 VRB6      30.18F
ALBUQUERQUE NM PTSUNNY   79  54  41 S7        30.20S
SALT LAKE CITY PTSUNNY   74  53  48 VRB7      30.11F
LOS ANGELES CA MOSUNNY   72  63  73 W15       29.95F
BOISE ID       SUNNY     80  51  36 VRB5      30.01F
SEATTLE WA     PTSUNNY   70  55  59 W8        29.98F
$$

*** WEATHER ACROSS MANITOBA...SASKATCHEWAN AND ONTARIO ***
                ***ONTARIO***

CITY           SKY/WX    TMP DP  RH WIND       PRES   REMARKS
GERALDTON      PTSUNNY   68  52  56 W9        29.89S
THUNDER BAY    MOSUNNY   73  50  43 W14G23    29.98R
SIOUX LOOKOUT  MOSUNNY   73  50  43 NW12G20   29.96S
TORONTO        PTSUNNY   55  39  54 W17G23    30.13R
BIG TROUT LK   HAZE      59  50  72 NE7       29.92R VSB 0
PICKLE LAKE    PTSUNNY   72  50  46 NW8       29.87R
DRYDEN         SUNNY     72  48  43 W15G24    29.99S
KENORA         NOT AVBL
$$
                *** MANITOBA***

CITY           SKY/WX    TMP DP  RH WIND       PRES   REMARKS
BRANDON        NOT AVBL
DAUPHIN        SUNNY     81  41  24 SW8       29.91F
ISLAND LAKE    MOSUNNY   70  52  52 CALM      29.92R
PILOT MOUND      N/A     77  39  25 S12         N/A
THE PAS        SUNNY     82  45  26 S13       29.82F
THOMPSON       MOSUNNY   59  50  72 E10       29.93S
WINNIPEG       MOSUNNY   79  46  31 SW7       29.98F
LYNN LAKE      SUNNY     72  50  46 SE14G21   29.81F
CHURCHILL      CLOUDY    43  36  75 E10       30.10R
GILLAM         PTSUNNY   52  43  71 E6        30.01R
$$
                ***SASKATCHEWAN***

CITY           SKY/WX    TMP DP  RH WIND       PRES   REMARKS
ESTEVAN        SUNNY     81  46  30 SE12      29.91F
KINDERSLEY     MOSUNNY   84  50  30 S9        29.76F
LLOYDMINSTER   NOT AVBL
PRINCE ALBERT  SUNNY     82  48  30 S13G22    29.76F
REGINA         NOT AVBL



USA.gov is the U.S. government's official web portal to all federal, state and local government web resources and services.